If you wish to contribute or participate in the discussions about articles you are invited to join SKYbrary as a registered user

 Actions

Ambler Airport

From SKYbrary Wiki

PAFM
Airport
ICAO: PAFM – IATA: ABL
Summary
Name Ambler Airport
Region North America
Territory Alaska US.gif
Location Ambler, Alaska
Serving Ambler
Elevation 101.803 m
334 ft
334 ft101.803 m
Type medium airport
Coordinates 67° 6' 23.00" N, 157° 51' 27.00" W
Runways
Designator Length Width Surface ROPS
9/27 732 m2,401.575 ft
18 m59.055 ft
GVL /
18/36 914 m2,998.688 ft
18 m59.055 ft
GVL /


METAR
Observation PAFM 062356Z AUTO 23003KT 10SM -RA BKN041 OVC055 15/14 A2936 RMK AO2 RAE26B46 SLP946 P0000 60004 T01500139 10167 20133 58003
Station Ambler, Ambler Airport
Date/Time 06 August 2020 23:56:00
Wind direction 230°
Wind speed 03 kts
Lowest cloud amount broken clouds
Temperature 15°C
Dew point 13.9°C
Humidity 93%
QNH hPa
Weather condition light rain

Maps

Terrain

Loading map...

Airport Layout

Loading map...


Accidents & Serious Incidents at or in vicinity of PAFM

None on SKYbrary